Location: Holyhead Bay
(53.3667°N, 4.6667°W)
Time: 19:40:48
(UTC+00:00)

PSLV R/B - Pass Details

Date: 24 November 2020
Orbit: 502 x 579 km, 97.8° (Epoch: 17 January)

Event Time Altitude Azimuth Distance (km) Brightness Sun altitude
Rises 16:54:55 0° 163° (SSE) 2,787 7.5 -6.6°
Reaches altitude 10° 16:57:04 10° 163° (SSE) 1,893 6.7 -6.9°
Maximum altitude 17:01:11 87° 76° (ENE) 587 3.9 -7.4°
Drops below altitude 10° 17:05:19 10° 346° (NNW) 1,895 6.5 -8.0°
Sets 17:07:28 0° 346° (NNW) 2,790 7.3 -8.3°
